Tracking 30986 objects as of 9-Jul-2025
HD Live streaming from Space Station
objects crossing your sky now

STARLINK-5758

Track STARLINK-5758 now!
10-day predictions
STARLINK-5758 is classified as:


NORAD ID: 56037
Int'l Code: 2023-042BD
Perigee: 565.2 km
Apogee: 567.3 km
Inclination: 43.0 °
Period: 95.8 minutes
Semi major axis: 6937 km
RCS: Unknown
Launch date: March 24, 2022
Source: United States (US)
Launch site: AIR FORCE EASTERN TEST RANGE (AFETR)
Your satellite tracking list
Your tracking list is empty




NASA's NSSDC Master Catalog

Two Line Element Set (TLE):
1 56037U 23042BD  25189.93853868 -.00000170  00000-0  24808-5 0  9993
2 56037  43.0041 274.5344 0001543 267.5800  92.4866 15.02534279126546
Source of the keplerian elements: AFSPC